User: anonymous   Login
Location: Unspecified
(0.0000°N, 0.0000°E)
Time: 21:35:41
(UTC+00:00)
Language:

Envisat - Orbit

View from above orbital plane
View from above orbital plane
View from above satellite
View from above satellite

Ground track
Ground track

The orbit data is extracted from the following two-line orbital elements,

1 27386U 02009A   17086.83088039 -.00000025 +00000-0 +53661-5 0  9992
2 27386 098.2422 135.4631 0001422 090.5651 269.5688 14.37890850789387
Epoch (UTC): 27 March 2017 19:56:28
Eccentricity: 0.0001422
inclination: 98.2422°
perigee height: 764 km
apogee height: 766 km
right ascension of ascending node: 135.4631°
argument of perigee: 90.5651°
revolutions per day: 14.37890850
mean anomaly at epoch: 269.5688°
orbit number at epoch: 78938

The dashed part of the orbit path shows where the satellite is in the earth's shadow,  

DLR